Weather History for Brisbane, QU

Change the Weather History Date:

Tuesday, May 14, 2013

  Actual Average Record
Temperature  
Mean Temperature 68 °F -  
Max Temperature 73 °F 72 °F 78 °F (2000)
Min Temperature 62 °F 55 °F 44 °F (2004)
Cooling Degree Days 2    
Growing Degree Days 18 (Base 50)    
Moisture  
Dew Point 61 °F    
Average Humidity 82    
Maximum Humidity 95    
Minimum Humidity 54    
Precipitation  
Precipitation 0.08 in 0.11 in - ()
Sea Level Pressure  
Sea Level Pressure 29.91 in    
Wind  
Wind Speed 5 mph ()    
Max Wind Speed 12 mph    
Max Gust Speed -    
Visibility 7.6 miles    
Events Rain    
Averages and records for this station are not official NWS values.
T = Trace of Precipitation, MM = Missing Value Source: Averaged Metar Reports

Daily Weather History Graph

Daily Weather History Graph

Search for Another Location

Airport:

Trip Planner

Search our weather history database for the weather conditions in past years. The results will help you decide how hot, cold, wet, or windy it might be!

Date:

Astronomy

May. 14, 2013 Rise Set
Actual Time 6:19 AM EST 5:07 PM EST
Civil Twilight 5:55 AM EST 5:32 PM EST
Nautical Twilight 5:27 AM EST 6:00 PM EST
Astronomical Twilight 4:59 AM EST 6:28 PM EST
Moon 9:30 AM EST (5/14) 8:28 PM EST (5/14)
Length of Visible Light 11h 36m
Length of Day
10h 47m
Waxing Crescent, 14% of the Moon is Illuminated
May 14
Waxing Crescent
May 18
First Quarter
May 25
Full
Jun 1
Last Quarter
Jun 9
New

Hourly Weather History & Observations

Time (EST) Temp. Dew Point Humidity Pressure Visibility Wind Dir Wind Speed Gust Speed Precip Events Conditions
12:00 AM 64 °F 62 °F 93% 30.00 in 19 mi South 1.2 mph - -   Partly Cloudy
12:00 AM 64.4 °F 62.6 °F 94% 29.98 in 6.2 mi South 1.2 mph - N/A   Mostly Cloudy
12:30 AM 64.4 °F 62.6 °F 94% 29.98 in 6.2 mi SSW 5.8 mph - N/A   Mostly Cloudy
1:00 AM 64 °F 63 °F 95% 29.98 in - SSW 4.6 mph - -  
1:00 AM 64.4 °F 62.6 °F 94% 29.98 in 6.2 mi SSW 4.6 mph - N/A   Mostly Cloudy
1:30 AM 64.4 °F 62.6 °F 94% 29.95 in 6.2 mi SSW 3.5 mph - N/A   Overcast
2:00 AM 64.4 °F 62.6 °F 94% 29.95 in 6.2 mi SSW 4.6 mph - N/A   Mostly Cloudy
2:30 AM 64.4 °F 62.6 °F 94% 29.92 in 6.2 mi SSW 4.6 mph - N/A   Overcast
3:00 AM 64 °F 63 °F 94% 29.94 in 19 mi SSW 4.6 mph - -   Partly Cloudy
3:00 AM 64.4 °F 62.6 °F 94% 29.92 in - SSW 4.6 mph - N/A   Clear
3:30 AM 64.4 °F 62.6 °F 94% 29.92 in 6.2 mi SSW 6.9 mph - N/A   Mostly Cloudy
4:00 AM 64 °F 63 °F 94% 29.92 in - SSW 5.8 mph - -  
4:00 AM 64.4 °F 62.6 °F 94% 29.92 in 6.2 mi SSW 5.8 mph - N/A Rain Light Rain Showers
4:30 AM 64.4 °F 62.6 °F 94% 29.92 in 6.2 mi SSW 5.8 mph - N/A Rain Light Rain
5:00 AM 64.4 °F 62.6 °F 94% 29.92 in 6.2 mi SW 5.8 mph - N/A Rain Light Rain
5:30 AM 64.4 °F 62.6 °F 94% 29.92 in 6.2 mi South 4.6 mph - N/A Rain Light Rain
6:30 AM 64.4 °F 62.6 °F 94% 29.92 in 5.0 mi South 5.8 mph - N/A Rain Light Rain
7:00 AM 64 °F 63 °F 95% 29.94 in - SE 1.2 mph - -  
7:00 AM 64.4 °F 62.6 °F 94% 29.92 in 5.0 mi SE 1.2 mph - N/A Rain Light Rain
7:30 AM 64.4 °F 62.6 °F 94% 29.95 in 5.0 mi South 1.2 mph - N/A Rain Light Rain
8:00 AM 64.4 °F 62.6 °F 94% 29.95 in 5.6 mi South 5.8 mph - N/A   Overcast
8:30 AM 64.4 °F 62.6 °F 94% 29.95 in 5.6 mi SW 6.9 mph - N/A Rain Light Rain
9:00 AM 66.2 °F 64.4 °F 94% 29.95 in 5.6 mi SSE 3.5 mph - N/A Rain Light Rain
9:30 AM 66.2 °F 64.4 °F 94% 29.95 in 3.7 mi West 5.8 mph - N/A Rain Light Rain
10:00 AM 65 °F 62 °F 89% 29.96 in - West 8.1 mph - -  
10:00 AM 64.4 °F 62.6 °F 94% 29.95 in 5.6 mi West 8.1 mph - N/A Rain Light Rain
10:30 AM 64.4 °F 62.6 °F 94% 29.95 in 6.2 mi West 5.8 mph - N/A Rain Light Rain
11:00 AM 66.2 °F 62.6 °F 88% 29.92 in 6.2 mi NNW 8.1 mph - N/A   Mostly Cloudy
11:30 AM 66.2 °F 62.6 °F 88% 29.92 in 6.2 mi NW 6.9 mph - N/A   Mostly Cloudy
11:48 AM 68.0 °F 64.4 °F 88% 29.89 in 6.2 mi NNW 8.1 mph - N/A   Mostly Cloudy
12:00 PM 68 °F 63 °F 80% 29.90 in 19 mi NNW 6.9 mph - -   Partly Cloudy
12:00 PM 68.0 °F 62.6 °F 83% 29.89 in 6.2 mi NNW 6.9 mph - N/A   Mostly Cloudy
12:30 PM 68.0 °F 62.6 °F 83% 29.86 in 6.2 mi North 8.1 mph - N/A   Mostly Cloudy
1:00 PM 69 °F 63 °F 75% 29.87 in - NNW 8.1 mph - -  
1:00 PM 69.8 °F 62.6 °F 78% 29.86 in 6.2 mi NNW 8.1 mph - N/A   Mostly Cloudy
1:30 PM 71.6 °F 62.6 °F 73% 29.83 in 6.2 mi North 6.9 mph - N/A   Mostly Cloudy
2:00 PM 71.6 °F 62.6 °F 73% 29.83 in 6.2 mi North 9.2 mph - N/A   Mostly Cloudy
2:30 PM 71.6 °F 60.8 °F 69% 29.83 in 6.2 mi NNW 8.1 mph - N/A   Mostly Cloudy
3:00 PM 72 °F 59 °F 54% 29.85 in 19 mi NNW 8.1 mph - -   Partly Cloudy
3:00 PM 73.4 °F 59.0 °F 61% 29.83 in 6.2 mi NNW 8.1 mph - N/A   Mostly Cloudy
3:30 PM 71.6 °F 59.0 °F 64% 29.83 in 6.2 mi West 10.4 mph - N/A   Scattered Clouds
4:00 PM 71.6 °F 59.0 °F 64% 29.83 in 6.2 mi WNW 6.9 mph - N/A   Mostly Cloudy
4:30 PM 71.6 °F 59.0 °F 64% 29.83 in 6.2 mi West 8.1 mph - N/A   Partly Cloudy
5:00 PM 69.8 °F 59.0 °F 68% 29.83 in 6.2 mi WNW 6.9 mph - N/A   Mostly Cloudy
5:30 PM 68.0 °F 59.0 °F 73% 29.86 in 6.2 mi WNW 6.9 mph - N/A   Mostly Cloudy
6:00 PM 68 °F 59 °F 65% 29.88 in 19 mi WNW 6.9 mph - -   Partly Cloudy
6:00 PM 68.0 °F 59.0 °F 73% 29.86 in - WNW 6.9 mph - N/A   Clear
6:30 PM 66.2 °F 59.0 °F 78% 29.89 in - WNW 8.1 mph - N/A   Clear
7:00 PM 67 °F 58 °F 65% 29.90 in - WNW 5.8 mph - -  
7:00 PM 66.2 °F 57.2 °F 73% 29.89 in 6.2 mi WNW 5.8 mph - N/A   Mostly Cloudy
7:30 PM 66.2 °F 57.2 °F 73% 29.89 in 6.2 mi WNW 8.1 mph - N/A   Mostly Cloudy
8:00 PM 64.4 °F 57.2 °F 77% 29.89 in 6.2 mi West 8.1 mph - N/A   Mostly Cloudy
8:30 PM 64.4 °F 57.2 °F 77% 29.89 in 6.2 mi West 10.4 mph - N/A   Mostly Cloudy
9:00 PM 65 °F 56 °F 66% 29.92 in 19 mi West 10.4 mph - -   Partly Cloudy
9:00 PM 64.4 °F 57.2 °F 77% 29.92 in 6.2 mi West 10.4 mph - N/A   Mostly Cloudy
9:30 PM 64.4 °F 57.2 °F 77% 29.92 in 6.2 mi West 8.1 mph - N/A   Mostly Cloudy
10:00 PM 64 °F 56 °F 68% 29.92 in - West 10.4 mph - -  
10:00 PM 64.4 °F 55.4 °F 73% 29.92 in 6.2 mi West 10.4 mph - N/A   Mostly Cloudy
10:30 PM 62.6 °F 55.4 °F 77% 29.92 in 6.2 mi WSW 10.4 mph - N/A   Mostly Cloudy
11:00 PM 62.6 °F 55.4 °F 77% 29.89 in - WSW 9.2 mph - N/A   Clear
11:30 PM 64.4 °F 53.6 °F 68% 29.89 in - WSW 11.5 mph - N/A   Clear